Tracking 29892 objects as of 21-Nov-2024
HD Live streaming from Space Station
objects crossing your sky now

ONEWEB-0036

Track ONEWEB-0036 now!
10-day predictions
ONEWEB-0036 is classified as:


NORAD ID: 45144
Int'l Code: 2020-008P
Perigee: 1,227.6 km
Apogee: 1,230.1 km
Inclination: 87.9 °
Period: 109.9 minutes
Semi major axis: 7599 km
RCS: Unknown
Launch date: February 6, 2020
Source: United Kingdom (UK)
Launch site: TYURATAM MISSILE AND SPACE COMPLEX (TTMTR)
Your satellite tracking list
Your tracking list is empty




NASA's NSSDC Master Catalog

Two Line Element Set (TLE):
1 45144U 20008P   24324.94237066 -.00000724  00000-0 -21095-2 0  9994
2 45144  87.8889 150.5932 0001611  95.4632 264.6679 13.10374461233166
Source of the keplerian elements: AFSPC